COSMOS 2251 DEB, 46432

Orbit data source: Space-Track

COSMOS 2251 DEB, 46432 is space debris in LEO originally from a launch on Wed, 16 Jun 1993 UTC launched from the Plesetsk Missile And Space Complex (PKMTR). The debris from Iridium 33, an American commercial communications satellite, has been tracked extensively since its accidental collision with the defunct Russian satellite Cosmos 2251 in 2009. This event, occurring at high speed in low Earth orbit (LEO), generated thousands of pieces of space debris, significantly increasing the risk of further collisions. The Iridium 33 debris cloud has impacted space traffic management and orbital debris mitigation strategies, making it a subject of ongoing study in space situational awareness.

Loading next visibility...
Identifier
46432, 1993-036BWW
Orbit
LEO
Country
Flag of CISCIS
Related business
Manufacturer
Unknown
Mission
Spacecraft
Bus & Motor
Unknown
Mass
Unknown
Launch date (UTC)
1993-06-16 (33 years ago)
Launch vehicle
Unknown
Launch site
Plesetsk Missile And Space Complex (PKMTR)
Object type
Payload
Rocket body
Debris
Shape & HBR
Unknown shape, 0.1 m
Radar Cross Section
Small (<0.1 m²)

Expand to show TLE details & history
Last TLE update: 3 days ago

TLE from 3 days ago
0 COSMOS 2251 DEB
1 46432U 93036BWW 26170.30957275  .00000412  00000-0  43964-3 0  9990
2 46432  73.8690 174.0890 0474475 259.5889 113.7724 13.36896571694867
Epoch: 2026-06-19T07:25Z
TLE epoch observation values (Epoch: 2026-06-19T07:25:47.085Z)
Latitude
17.46863°
Longitude
160.29842°
Altitude
1,279.938 km
Speed
7.141 km/s
True Right ascension
11h 57m 08s
True Declination
17° 22' 38"
Sunlit
Object was in daylight at epoch
Visualization orbit readout
Latitude
Unknown
Longitude
Unknown
Altitude
Unknown
Speed
Unknown
Apparent Right ascension
Unknown
Apparent Declination
Unknown
Sunlit
N/A
Visualization observer readout
Local Sidereal Time
21:38:24
Azimuth
Unknown
Elevation
Unknown
Doppler factor
Unknown
Orbital elements
Apogee altitude
1,474.305 km
Perigee altitude
762.902 km
Semi-major axis
7,496.74 km
Eccentricity
0.04745
Inclination
73.869°
RAAN
174.089°
Arg. of periapsis
259.5889°
True anomaly
118.62609°
Mean anomaly
113.7724°
Eccentric anomaly
116.2114°
Mean motion
3.34376 °/min
Orbital period
107.66 mins
BSTAR
0.00043964
Loading maneuver chart data...
Computing Atmospheric mass density...

Documentation

Showing up to 5 results
|